Location: Vista Encantada
(35.1109°N, 106.5681°W)
Time: 02:05:38
(UTC+00:00)

N. Korean satellite - Visible Passes

Search period start: 18 September 2021 00:00
Search period end: 28 September 2021 00:00
Orbit: 448 x 499 km, 97.3° (Epoch: 17 September)

Date Brightness Start Highest point End Pass type
(mag) Time Alt. Az. Time Alt. Az. Time Alt. Az.
18 Sep 9.5 11:34:38 10° NE 11:37:08 18° E 11:39:39 10° SE visible
20 Sep 7.1 12:11:28 10° NNE 12:14:58 64° E 12:18:31 10° S visible
21 Sep 9.0 11:44:14 10° NE 11:47:12 25° E 11:50:11 10° SSE visible
22 Sep 10.1 11:18:25 10° ENE 11:19:18 11° E 11:20:11 10° ESE visible
23 Sep 6.5 12:21:23 10° N 12:24:57 89° WNW 12:28:32 10° SSW visible
24 Sep 8.4 11:53:53 10° NNE 11:57:10 34° E 12:00:29 10° SSE visible
25 Sep 9.8 11:27:11 10° ENE 11:29:18 15° E 11:31:25 10° SE visible
26 Sep 6.6 12:31:19 10° N 12:34:51 63° WNW 12:38:25 10° SSW visible
27 Sep 7.6 12:03:36 10° NNE 12:07:05 48° E 12:10:36 10° S visible
